Tracking 30918 objects as of 2-Jul-2025
HD Live streaming from Space Station
objects crossing your sky now

SL-3 R/B

Track SL-3 R/B now!
10-day predictions


NORAD ID: 7210
Int'l Code: 1974-011B
Perigee: 796.8 km
Apogee: 911.9 km
Inclination: 81.2 °
Period: 101.9 minutes
Semi major axis: 7225 km
RCS: 6.5263 m2 (large)
Launch date: March 5, 1974
Source: Commonwealth of Independent States (former USSR) (CIS)
Launch site: PLESETSK MISSILE AND SPACE COMPLEX (PKMTR)

Note: This is a ROCKET BODY
Your satellite tracking list
Your tracking list is empty




NASA's NSSDC Master Catalog

Two Line Element Set (TLE):
1 07210U 74011B   25182.87072551  .00000138  00000-0  64963-4 0  9990
2 07210  81.2357  51.5349 0079615 305.7082  53.6700 14.13557344644493
Source of the keplerian elements: AFSPC